Regional Weather Roundup
Issued by NWS

Home | Current Version | Previous Version | Graphics & Text | Print | Product List | Glossary On
Versions: 1 2 3 4 5 6 7 8 9 10 11 12 13 14 15 16 17 18 19 20 21 22 23 24 25 26 27 28 29 30 31 32 33 34 35 36 37 38 39 40 41 42 43 44 45 46 47 48 49 50
000
ASUS45 KCYS 271710
RWRWY

WYOMING REGIONAL WEATHER ROUNDUP
NATIONAL WEATHER SERVICE CHEYENNE WY
1100 AM MDT WED MAY 27 2015

NOTE:  "FAIR" INDICATES FEW OR NO CLOUDS BELOW 12,000 FEET
WITH NO SIGNIFICANT WEATHER AND/OR OBSTRUCTIONS TO VISIBILITY.

WYZ001-271800-
YELLOWSTONE NATIONAL PARK

CITY           SKY/WX    TMP DP  RH WIND       PRES   REMARKS
LK YELLOWSTONE   N/A     44  38  79 VRB3      30.17S
W YELLOWSTONE  NOT AVBL

$$
WYZ002>013-054>058-071-098>099-271800-
NORTHERN WYOMING

CITY           SKY/WX    TMP DP  RH WIND       PRES   REMARKS
JACKSON        LGT RAIN  48  45  87 W7        30.12F
CODY           FAIR      59  48  67 NE9       30.03S
GREYBULL       FAIR      64  50  60 S5        30.00F
WORLAND        FAIR      62  49  62 CALM      30.01S
SHERIDAN       FAIR      64  48  56 CALM      29.99F
BUFFALO        PTSUNNY   60  49  66 N7        30.02S
GILLETTE       FAIR      65  51  60 S9        29.98F
HULETT         FAIR      66  50  55 SW8       30.00F
NEWCASTLE      FAIR      64  50  59 S8        30.03S

$$
WYZ014>020-022>026-101>103-271800-
CENTRAL WYOMING

CITY           SKY/WX    TMP DP  RH WIND       PRES   REMARKS
BIG PINEY      FAIR      54  38  54 CALM      30.15F
PINEDALE       PTSUNNY   52  36  54 CALM      30.16S
DUBOIS         CLOUDY    50  36  57 NW15      30.11S
LANDER         FAIR      61  43  51 E3        30.05F
RIVERTON       FAIR      62  43  49 W3        30.06F
CASPER         FAIR      63  47  55 SW20      30.03F
DOUGLAS        LGT RAIN  61  50  67 SE3       30.04S

$$
WYZ021-027>030-104>119-271800-
SOUTHERN WYOMING

CITY           SKY/WX    TMP DP  RH WIND       PRES   REMARKS
EVANSTON       FAIR     N/A N/A N/A SW9       30.15F
KEMMERER       PTSUNNY   54  37  54 W5        30.17S
FORT BRIDGER   SUNNY     57  43  58 NE6       30.18F
ROCK SPRINGS   FAIR      55  41  59 W13       30.16F
RAWLINS        PTSUNNY   57  41  55 SW21      30.15F
SARATOGA       PTSUNNY   54  41  62 SW13      30.19R
LARAMIE        CLOUDY    55  38  52 W12       30.15S
CHEYENNE       LGT RAIN  59  41  51 W15G22    30.11R
TORRINGTON     FAIR      67  53  61 SE5       30.03F
PINE BLUFFS    FAIR      66  46  48 CALM      30.09R

$$


USA.gov is the U.S. government's official web portal to all federal, state and local government web resources and services.